Time,TemperatureF,DewpointF,PressureIn,WindDirection,WindDirectionDegrees,WindSpeedMPH,WindSpeedGustMPH,Humidity,HourlyPrecipIn,Conditions,Clouds,dailyrainin,SolarRadiationWatts/m^2,SoftwareType,DateUTC
2013-02-01 00:01:00,29.0,8.0,-100.00,North,3,4.0,15.0,41,0.00,,,0.56,0.000000,,2013-02-01 05:01:00,
2013-02-01 00:32:00,29.0,8.0,-100.00,North,3,4.0,15.0,41,0.00,,,0.56,0.000000,,2013-02-01 05:32:00,
2013-02-01 00:42:00,29.0,8.0,-100.00,North,3,4.0,15.0,41,0.00,,,0.56,0.000000,,2013-02-01 05:42:00,
2013-02-01 00:52:00,29.0,8.0,-100.00,North,3,4.0,15.0,41,0.00,,,0.56,0.000000,,2013-02-01 05:52:00,
2013-02-01 01:01:00,29.0,8.0,-100.00,North,11,5.0,13.0,41,0.00,,,0.56,0.000000,,2013-02-01 06:01:00,
2013-02-01 01:32:00,29.0,8.0,-100.00,North,11,5.0,13.0,41,0.00,,,0.56,0.000000,,2013-02-01 06:32:00,
2013-02-01 01:42:00,29.0,8.0,-100.00,North,11,5.0,13.0,41,0.00,,,0.56,0.000000,,2013-02-01 06:42:00,
2013-02-01 01:52:00,29.0,8.0,-100.00,North,11,5.0,13.0,41,0.00,,,0.56,0.000000,,2013-02-01 06:52:00,
2013-02-01 02:01:00,28.0,7.0,-100.00,North,11,3.0,18.0,41,0.00,,,0.56,0.000000,,2013-02-01 07:01:00,
2013-02-01 02:32:00,28.0,7.0,-100.00,North,11,3.0,18.0,41,0.00,,,0.56,0.000000,,2013-02-01 07:32:00,
2013-02-01 02:42:00,28.0,7.0,-100.00,North,11,3.0,18.0,41,0.00,,,0.56,0.000000,,2013-02-01 07:42:00,
2013-02-01 02:52:00,28.0,7.0,-100.00,North,11,3.0,18.0,41,0.00,,,0.56,0.000000,,2013-02-01 07:52:00,
2013-02-01 03:01:00,27.0,9.0,-100.00,North,0,4.0,13.0,45,0.00,,,0.56,0.000000,,2013-02-01 08:01:00,
2013-02-01 03:32:00,27.0,9.0,-100.00,North,0,4.0,13.0,45,0.00,,,0.56,0.000000,,2013-02-01 08:32:00,
2013-02-01 03:42:00,27.0,9.0,-100.00,North,0,4.0,13.0,45,0.00,,,0.56,0.000000,,2013-02-01 08:42:00,
2013-02-01 03:52:00,27.0,9.0,-100.00,North,0,4.0,13.0,45,0.00,,,0.56,0.000000,,2013-02-01 08:52:00,
2013-02-01 04:01:00,27.0,10.0,-100.00,North,0,3.0,12.0,48,0.00,,,0.56,0.000000,,2013-02-01 09:01:00,
2013-02-01 04:32:00,27.0,10.0,-100.00,North,0,3.0,12.0,48,0.00,,,0.56,0.000000,,2013-02-01 09:32:00,
2013-02-01 04:42:00,27.0,10.0,-100.00,North,0,3.0,12.0,48,0.00,,,0.56,0.000000,,2013-02-01 09:42:00,
2013-02-01 04:52:00,27.0,10.0,-100.00,North,0,3.0,12.0,48,0.00,,,0.56,0.000000,,2013-02-01 09:52:00,
2013-02-01 05:01:00,26.0,10.0,-100.00,North,351,3.0,10.0,51,0.00,,,0.42,0.000000,,2013-02-01 10:01:00,
2013-02-01 05:21:00,26.0,10.0,-100.00,North,351,3.0,10.0,51,0.00,,,0.42,0.000000,,2013-02-01 10:21:00,
2013-02-01 05:32:00,26.0,10.0,-100.00,North,351,3.0,10.0,51,0.00,,,0.42,0.000000,,2013-02-01 10:32:00,
2013-02-01 05:43:00,26.0,10.0,-100.00,North,351,3.0,10.0,51,0.00,,,0.42,0.000000,,2013-02-01 10:43:00,
2013-02-01 05:53:00,26.0,10.0,-100.00,North,351,3.0,10.0,51,0.00,,,0.42,0.000000,,2013-02-01 10:53:00,
2013-02-01 06:01:00,27.0,10.0,-100.00,North,356,4.0,10.0,48,0.00,,,0.07,0.000000,,2013-02-01 11:01:00,
2013-02-01 06:32:00,27.0,10.0,-100.00,North,356,4.0,10.0,48,0.00,,,0.07,0.000000,,2013-02-01 11:32:00,
2013-02-01 06:42:00,27.0,10.0,-100.00,North,356,4.0,10.0,48,0.00,,,0.07,0.000000,,2013-02-01 11:42:00,
2013-02-01 06:53:00,27.0,10.0,-100.00,North,356,4.0,10.0,48,0.00,,,0.07,0.000000,,2013-02-01 11:53:00,
2013-02-01 07:01:00,28.0,10.0,-100.00,North,0,5.0,13.0,46,0.00,,,0.00,1.000000,,2013-02-01 12:01:00,
2013-02-01 07:23:00,28.0,10.0,-100.00,North,0,5.0,13.0,46,0.00,,,0.00,1.000000,,2013-02-01 12:23:00,
2013-02-01 07:32:00,28.0,10.0,-100.00,North,0,5.0,13.0,46,0.00,,,0.00,1.000000,,2013-02-01 12:32:00,
2013-02-01 07:42:00,28.0,10.0,-100.00,North,0,5.0,13.0,46,0.00,,,0.00,1.000000,,2013-02-01 12:42:00,
2013-02-01 07:52:00,28.0,10.0,-100.00,North,0,5.0,13.0,46,0.00,,,0.00,1.000000,,2013-02-01 12:52:00,
2013-02-01 08:01:00,29.0,10.0,-100.00,North,6,3.0,14.0,45,0.00,,,0.00,29.000000,,2013-02-01 13:01:00,
2013-02-01 08:33:00,29.0,10.0,-100.00,North,6,3.0,14.0,45,0.00,,,0.00,29.000000,,2013-02-01 13:33:00,
2013-02-01 08:43:00,29.0,10.0,-100.00,North,6,3.0,14.0,45,0.00,,,0.00,29.000000,,2013-02-01 13:43:00,
2013-02-01 08:53:00,29.0,10.0,-100.00,North,6,3.0,14.0,45,0.00,,,0.00,29.000000,,2013-02-01 13:53:00,
2013-02-01 09:01:00,31.0,10.0,-100.00,North,10,4.0,12.0,41,0.00,,,0.00,135.000000,,2013-02-01 14:01:00,
2013-02-01 09:32:00,31.0,10.0,-100.00,North,10,4.0,12.0,41,0.00,,,0.00,135.000000,,2013-02-01 14:32:00,
2013-02-01 09:42:00,31.0,10.0,-100.00,North,10,4.0,12.0,41,0.00,,,0.00,135.000000,,2013-02-01 14:42:00,
2013-02-01 09:53:00,31.0,10.0,-100.00,North,10,4.0,12.0,41,0.00,,,0.00,135.000000,,2013-02-01 14:53:00,
2013-02-01 10:01:00,32.0,10.0,-100.00,NNE,22,4.0,14.0,40,0.00,,,0.00,172.000000,,2013-02-01 15:01:00,
2013-02-01 10:33:00,32.0,10.0,-100.00,NNE,22,4.0,14.0,40,0.00,,,0.00,172.000000,,2013-02-01 15:33:00,
2013-02-01 10:42:00,32.0,10.0,-100.00,NNE,22,4.0,14.0,40,0.00,,,0.00,172.000000,,2013-02-01 15:42:00,
2013-02-01 10:52:00,32.0,10.0,-100.00,NNE,22,4.0,14.0,40,0.00,,,0.00,172.000000,,2013-02-01 15:52:00,
2013-02-01 11:01:00,31.0,11.0,-100.00,NE,43,3.0,13.0,42,0.00,,,0.00,193.000000,,2013-02-01 16:01:00,
2013-02-01 11:33:00,31.0,11.0,-100.00,NE,43,3.0,13.0,42,0.00,,,0.00,193.000000,,2013-02-01 16:33:00,
2013-02-01 11:43:00,31.0,11.0,-100.00,NE,43,3.0,13.0,42,0.00,,,0.00,193.000000,,2013-02-01 16:43:00,
2013-02-01 11:53:00,31.0,11.0,-100.00,NE,43,3.0,13.0,42,0.00,,,0.00,193.000000,,2013-02-01 16:53:00,
2013-02-01 12:01:00,32.0,8.0,-100.00,NE,46,3.0,12.0,36,0.00,,,0.00,278.000000,,2013-02-01 17:01:00,
2013-02-01 12:32:00,32.0,8.0,-100.00,NE,46,3.0,12.0,36,0.00,,,0.00,278.000000,,2013-02-01 17:32:00,
2013-02-01 12:42:00,32.0,8.0,-100.00,NE,46,3.0,12.0,36,0.00,,,0.00,278.000000,,2013-02-01 17:42:00,
2013-02-01 12:53:00,32.0,8.0,-100.00,NE,46,3.0,12.0,36,0.00,,,0.00,278.000000,,2013-02-01 17:53:00,
2013-02-01 13:01:00,32.0,7.0,-100.00,NE,43,4.0,12.0,35,0.00,,,0.00,243.000000,,2013-02-01 18:01:00,
2013-02-01 13:23:00,32.0,7.0,-100.00,NE,43,4.0,12.0,35,0.00,,,0.00,243.000000,,2013-02-01 18:23:00,
2013-02-01 13:33:00,32.0,7.0,-100.00,NE,43,4.0,12.0,35,0.00,,,0.00,243.000000,,2013-02-01 18:33:00,
2013-02-01 13:42:00,32.0,7.0,-100.00,NE,43,4.0,12.0,35,0.00,,,0.00,243.000000,,2013-02-01 18:42:00,
2013-02-01 13:53:00,32.0,7.0,-100.00,NE,43,4.0,12.0,35,0.00,,,0.00,243.000000,,2013-02-01 18:53:00,
2013-02-01 14:01:00,31.0,7.0,-100.00,NNE,20,4.0,13.0,35,0.00,,,0.00,214.000000,,2013-02-01 19:01:00,
2013-02-01 14:32:00,31.0,7.0,-100.00,NNE,20,4.0,13.0,35,0.00,,,0.00,214.000000,,2013-02-01 19:32:00,
2013-02-01 14:42:00,31.0,7.0,-100.00,NNE,20,4.0,13.0,35,0.00,,,0.00,214.000000,,2013-02-01 19:42:00,
2013-02-01 14:52:00,31.0,7.0,-100.00,NNE,20,4.0,13.0,35,0.00,,,0.00,214.000000,,2013-02-01 19:52:00,
2013-02-01 15:01:00,31.0,7.0,-100.00,NE,41,3.0,16.0,35,0.00,,,0.00,189.000000,,2013-02-01 20:01:00,
2013-02-01 15:22:00,31.0,7.0,-100.00,NE,41,3.0,16.0,35,0.00,,,0.00,189.000000,,2013-02-01 20:22:00,
2013-02-01 15:32:00,31.0,7.0,-100.00,NE,41,3.0,16.0,35,0.00,,,0.00,189.000000,,2013-02-01 20:32:00,
2013-02-01 15:42:00,31.0,7.0,-100.00,NE,41,3.0,16.0,35,0.00,,,0.00,189.000000,,2013-02-01 20:42:00,
2013-02-01 15:52:00,31.0,7.0,-100.00,NE,41,3.0,16.0,35,0.00,,,0.00,189.000000,,2013-02-01 20:52:00,
2013-02-01 16:01:00,30.0,6.0,-100.00,NE,48,3.0,12.0,36,0.00,,,0.00,76.000000,,2013-02-01 21:01:00,
2013-02-01 16:32:00,30.0,6.0,-100.00,NE,48,3.0,12.0,36,0.00,,,0.00,76.000000,,2013-02-01 21:32:00,
2013-02-01 16:42:00,30.0,6.0,-100.00,NE,48,3.0,12.0,36,0.00,,,0.00,76.000000,,2013-02-01 21:42:00,
2013-02-01 16:53:00,30.0,6.0,-100.00,NE,48,3.0,12.0,36,0.00,,,0.00,76.000000,,2013-02-01 21:53:00,
2013-02-01 17:01:00,29.0,5.0,-100.00,NE,34,3.0,13.0,36,0.00,,,0.00,28.000000,,2013-02-01 22:01:00,
2013-02-01 17:32:00,29.0,5.0,-100.00,NE,34,3.0,13.0,36,0.00,,,0.00,28.000000,,2013-02-01 22:32:00,
2013-02-01 17:42:00,29.0,5.0,-100.00,NE,34,3.0,13.0,36,0.00,,,0.00,28.000000,,2013-02-01 22:42:00,
2013-02-01 17:52:00,29.0,5.0,-100.00,NE,34,3.0,13.0,36,0.00,,,0.00,28.000000,,2013-02-01 22:52:00,
2013-02-01 18:01:00,28.0,3.0,-100.00,NNE,25,3.0,13.0,34,0.00,,,0.00,1.000000,,2013-02-01 23:01:00,
2013-02-01 18:32:00,28.0,3.0,-100.00,NNE,25,3.0,13.0,34,0.00,,,0.00,1.000000,,2013-02-01 23:32:00,
2013-02-01 18:42:00,28.0,3.0,-100.00,NNE,25,3.0,13.0,34,0.00,,,0.00,1.000000,,2013-02-01 23:42:00,
2013-02-01 18:52:00,28.0,3.0,-100.00,NNE,25,3.0,13.0,34,0.00,,,0.00,1.000000,,2013-02-01 23:52:00,
2013-02-01 19:01:00,27.0,4.0,-100.00,NE,45,2.0,11.0,36,0.00,,,0.00,0.000000,,2013-02-02 00:01:00,
2013-02-01 19:32:00,27.0,4.0,-100.00,NE,45,2.0,11.0,36,0.00,,,0.00,0.000000,,2013-02-02 00:32:00,
2013-02-01 19:42:00,27.0,4.0,-100.00,NE,45,2.0,11.0,36,0.00,,,0.00,0.000000,,2013-02-02 00:42:00,
2013-02-01 19:52:00,27.0,4.0,-100.00,NE,45,2.0,11.0,36,0.00,,,0.00,0.000000,,2013-02-02 00:52:00,
2013-02-01 20:01:00,26.0,4.0,-100.00,NE,42,2.0,12.0,38,0.00,,,0.00,0.000000,,2013-02-02 01:01:00,
2013-02-01 20:32:00,26.0,4.0,-100.00,NE,42,2.0,12.0,38,0.00,,,0.00,0.000000,,2013-02-02 01:32:00,
2013-02-01 20:42:00,26.0,4.0,-100.00,NE,42,2.0,12.0,38,0.00,,,0.00,0.000000,,2013-02-02 01:42:00,
2013-02-01 20:52:00,26.0,4.0,-100.00,NE,42,2.0,12.0,38,0.00,,,0.00,0.000000,,2013-02-02 01:52:00,
2013-02-01 21:01:00,25.0,2.0,-100.00,NE,43,3.0,14.0,36,0.00,,,0.00,0.000000,,2013-02-02 02:01:00,
2013-02-01 21:32:00,25.0,2.0,-100.00,NE,43,3.0,14.0,36,0.00,,,0.00,0.000000,,2013-02-02 02:32:00,
2013-02-01 21:42:00,25.0,2.0,-100.00,NE,43,3.0,14.0,36,0.00,,,0.00,0.000000,,2013-02-02 02:42:00,
2013-02-01 21:52:00,25.0,2.0,-100.00,NE,43,3.0,14.0,36,0.00,,,0.00,0.000000,,2013-02-02 02:52:00,
2013-02-01 22:01:00,24.0,3.0,-100.00,NNE,25,3.0,10.0,39,0.00,,,0.00,0.000000,,2013-02-02 03:01:00,
2013-02-01 22:22:00,24.0,3.0,-100.00,NNE,25,3.0,10.0,39,0.00,,,0.00,0.000000,,2013-02-02 03:22:00,
2013-02-01 22:32:00,24.0,3.0,-100.00,NNE,25,3.0,10.0,39,0.00,,,0.00,0.000000,,2013-02-02 03:32:00,
2013-02-01 22:42:00,24.0,3.0,-100.00,NNE,25,3.0,10.0,39,0.00,,,0.00,0.000000,,2013-02-02 03:42:00,
2013-02-01 22:52:00,24.0,3.0,-100.00,NNE,25,3.0,10.0,39,0.00,,,0.00,0.000000,,2013-02-02 03:52:00,
2013-02-01 23:01:00,24.0,4.0,-100.00,NNE,27,3.0,13.0,41,0.00,,,0.00,0.000000,,2013-02-02 04:01:00,
2013-02-01 23:33:00,24.0,4.0,-100.00,NNE,27,3.0,13.0,41,0.00,,,0.00,0.000000,,2013-02-02 04:33:00,
2013-02-01 23:42:00,24.0,4.0,-100.00,NNE,27,3.0,13.0,41,0.00,,,0.00,0.000000,,2013-02-02 04:42:00,
2013-02-01 23:52:00,24.0,4.0,-100.00,NNE,27,3.0,13.0,41,0.00,,,0.00,0.000000,,2013-02-02 04:52:00,